Location: Big Meadows
(38.5260°N, 78.4400°W)
Time: 01:34:42
(UTC-04:00)

H-2A R/B - Visible Passes

Search period start: 01 September 2016 00:00
Search period end: 11 September 2016 00:00
Orbit: 733 x 838 km, 98.4° (Epoch: 31 August)

Date Brightness Start Highest point End Pass type
(mag) Time Alt. Az. Time Alt. Az. Time Alt. Az.
01 Sep 3.7 23:04:07 26° N 23:04:07 26° N 23:06:16 10° N visible
02 Sep 3.7 22:33:07 23° NNE 22:33:07 23° NNE 22:35:14 10° N visible
03 Sep 4.9 00:13:46 11° NW 00:13:46 11° NW 00:14:02 10° NW visible
03 Sep 4.0 22:02:07 16° NE 22:02:07 16° NE 22:03:41 10° NNE visible
03 Sep 4.4 23:42:45 18° NNW 23:42:45 18° NNW 23:44:02 10° NNW visible
04 Sep 4.1 23:11:45 22° NNW 23:11:45 22° NNW 23:13:29 10° NNW visible
05 Sep 3.9 22:40:45 21° N 22:40:45 21° N 22:42:32 10° N visible
06 Sep 4.0 22:09:44 16° NNE 22:09:44 16° NNE 22:11:08 10° NNE visible
06 Sep 4.7 23:50:23 14° NW 23:50:23 14° NW 23:51:06 10° NNW visible
07 Sep 4.3 23:19:23 18° NNW 23:19:23 18° NNW 23:20:40 10° NNW visible
08 Sep 4.1 22:48:22 19° N 22:48:22 19° N 22:49:49 10° N visible
09 Sep 4.1 22:17:22 16° NNE 22:17:22 16° NNE 22:18:32 10° NNE visible
09 Sep 4.9 23:58:01 11° NW 23:58:01 11° NW 23:58:08 10° NW visible
10 Sep 4.3 21:46:22 10° NE 21:46:22 10° NE 21:46:30 10° NNE visible
10 Sep 4.6 23:27:01 15° NNW 23:27:01 15° NNW 23:27:49 10° NNW visible
